Regional Weather Roundup
Issued by NWS Charleston, SC

Current Version | Previous Version | Graphics & Text | Print | Product List | Glossary On
Versions: 1 2 3 4 5 6 7 8 9 10 11 12 13 14 15 16 17 18 19 20 21 22 23 24 25 26 27 28 29 30 31 32 33 34 35 36 37 38 39 40 41 42 43 44 45 46 47 48 49 50
000 ASUS42 KCHS 280412 RWRCHS REGIONAL WEATHER ROUNDUP NATIONAL WEATHER SERVICE CHARLESTON SC 1200 AM EDT THU MAY 28 2015 NOTE: "FAIR" INDICATES FEW OR NO CLOUDS BELOW 12,000 FEET WITH NO SIGNIFICANT WEATHER AND/OR OBSTRUCTIONS TO VISIBILITY. NOT ALL STATIONS ARE QUALITY CONTROLLED BY THE NATIONAL WEATHER SERVICE. USE DATA WITH CAUTION...ESPECIALLY DEWPOINT OBSERVATIONS. SCZ027-030-031-034>040-042>050-280500- ...SOUTHEAST SOUTH CAROLINA... CITY SKY/WX TMP DP RH WIND PRES REMARKS N CHARLESTON PTCLDY 73 67 81 SE3 30.22R WATERFRONT PAR N/A 77 70 79 SE7 30.19S MOUNT PLEASANT LGT RAIN 70 68 94 CALM 30.22S JOHNS ISLAND CLEAR 72 68 88 CALM 30.22S PINOPOLIS N/A 75 68 78 CALM 30.16R MONCKS CORNER FAIR 70 66 88 CALM 30.22S SUMMERVILLE FAIR 70 68 94 CALM 30.23S BEAUFORT MCAS CLEAR 72 68 87 CALM 30.21S BEAUFORT ARPT FAIR 72 70 94 CALM 30.20F HILTON HEAD IS PTCLDY 72 68 88 SE3 30.22S WALTERBORO CLEAR 66 63 88 CALM 30.23S ALLENDALE FAIR 70 68 94 CALM 30.21S ...SOUTHERN MIDLANDS AND PEE DEE... CITY SKY/WX TMP DP RH WIND PRES REMARKS GEORGETOWN NOT AVBL KINGSTREE NOT AVBL ORANGEBURG CLEAR 69 66 90 CALM 30.22S BARNWELL FAIR 73 68 83 CALM 30.23R AIKEN FAIR 70 64 83 SW3 30.26S MANNING FAIR 68 66 94 CALM 30.23R COLUMBIA PTCLDY 73 67 81 E5 30.22S SUMTER NOT AVBL FLORENCE MOCLDY 71 69 93 S3 30.23R MYRTLE BEACH PTCLDY 75 66 73 SE10 30.24F N MYRTLE BEACH PTCLDY 75 67 76 S7 30.22F $$ GAZ063-065-086>088-099>101-113>116-118-119-134>141-150-280500- ...SOUTHEAST GEORGIA... CITY SKY/WX TMP DP RH WIND PRES REMARKS SAVANNAH ARPT PTCLDY 72 65 78 CALM 30.21S HUNTER AAF NOT AVBL FORT STEWART NOT AVBL STATESBORO PTCLDY 69 69 100 CALM 30.22S SYLVANIA PTCLDY 69 68 96 CALM 30.22S CLAXTON FAIR 68 64 88 CALM 30.21S ...CSRA...CENTRAL AND FAR SOUTHEAST GEORGIA... CITY SKY/WX TMP DP RH WIND PRES REMARKS THOMSON MOCLDY 73 73 100 CALM 30.26S AUGUSTA-BUSH CLOUDY 73 68 84 S3 30.21R AUGUSTA-DANIEL CLOUDY 78 67 68 S7 30.23R SWAINSBORO FAIR N/A N/A N/A CALM 30.22S VIDALIA PTCLDY 70 66 88 SE3 30.21S EASTMAN FAIR 74 71 91 CALM 30.23S HAZLEHURST FAIR 74 66 76 SE6 30.19F ALMA CLEAR 71 64 78 E5 30.19F WAYCROSS CLEAR 71 68 89 SE3 30.19F JESUP FAIR 70 66 88 CALM 30.20F BAXLEY FAIR 73 66 78 CALM 30.19F BRUNSWICK N/A 70 64 83 CALM 30.20F SAINT SIMONS NOT AVBL $$ SCZ027-028-034-036>038-045-046-048>050-GAZ119-141-280500- ...LAKE AND SUPPLEMENTAL COASTAL OBSERVATIONS... STATION/POSITION TIME TEMP WIND PRES WAVE SWELL AIR SEA DIR/SP/G HT/PER HT/PER/DIR (UTC) (F) (DEG/KT/KT) (MB) (FT/S) (FT/S/D) UPR LAKE MARION NOT AVBL WINYAH BAY NOT AVBL LAKE MURRAY 0300 75 110/ 4/ 8 1022.7R ACE BASIN NERRS NOT AVBL FORT PULASKI 0300 76 79 130/ 2/ 2 1023.4R SAPELO ISLAND 0300 75 120/ 3 1023.0S $$ ANZ835-935-AMZ111-154-330-350-352-354-370-450-454-472-280500- ...C-MAN AND BUOY OBSERVATIONS... STATION/POSITION TIME TEMP WIND PRES WAVE SWELL AIR SEA DIR/SP/G HT/PER HT/PER/DIR (UTC) (F) (DEG/KT/KT) (MB) (FT/S) (FT/S/D) BUOY 41004 0350 77 78 120/ 8/ 10 1022.9S 3/ 7 3/ 7 BUOY 41008 0350 78 78 140/ 10/ 10 1022.8F 3/ 7 2/100/ 7 FOLLY BEACH CMAN 0400 77 150/ 8/ 10 1023.3R CAPERS NEARSHORE 0308 77 140/ 8/ 12 1023.3R FRIPP NEARSHORE 0300 78 180/ 6/ 8 1022.4S STATION/POSITION TIME TEMP WIND PRES WAVE SWELL AIR SEA DIR/SP/G HT/PER HT/PER/DIR (UTC) (F) (DEG/KT/KT) (MB) (FT/S) (FT/S/D) 5E ST. MARYS GA 0321 79 N/A 3/ 7 FRYING PAN BUOY 0350 76 75 170/ 8/ 8 1024.6S 3/ 7 3/130/ 7 BUOY 41025 0350 74 77 190/ 8/ 10 1024.9F 3/ 7 3/130/ 7 CAPE LOOKOUT NC 0400 73 170/ 6/ 7 1024.2F BUOY 41002 0350 73 74 90/ 10/ 12 1024.2F 5/ 7 5/120/ 7 BUOY 41010 0320 77 80 80/ 12/ 16 1021.9F ST AUGUSTINE FL 0400 77 80 110/ 12/ 13 1022.6F $$

USA.gov is the U.S. government's official web portal to all federal, state and local government web resources and services.